Flag for Italy Weather past 2 weeks in Bologna, Italy

Now
81 °F

Sunny.


Feels Like: 83 °F
Forecast: 71 / 94 °F
Wind: 3 mph from North

Location: Bologna / Borgo Panigale

Current Time: Jul 2, 2015 at 10:50:47 AM

Latest Report: Jul 2, 2015 at 9:50 AM


Visibility: 10 mi

Pressure: 30.18 "Hg

Humidity: 62%

Dew point: 66 °F

Location of BolognaLocation

Historic Weather in Bologna — Graph

°F

Bologna temperature yesterday

Maximum temperature yesterday: 90 °F (at 3:20 PM)
Minimum temperature yesterday: 64 °F (at 3:50 AM)
Average temperature yesterday: 78 °F

Past Weeks' High & Low Weather Summary

 TemperatureHumidityPressure
High90 °F (Jul 1, 3:20 PM)100% (Jun 17, 9:20 AM)30.21 "Hg (Jun 17, 9:20 AM)
Low57 °F (Jun 24, 6:20 AM)31% (Jun 23, 2:20 PM)29.71 "Hg (Jun 23, 4:50 PM)
Average72 °F63%30.02 "Hg
* Reported Jun 17 9:20 AM — Jul 2 9:50 AM, Bologna, Weather by CustomWeather, © 2015

Note: Actual official high and low records may vary slightly from our data, if they occured in-between our weather recording intervals... More about our weather records

Advertising

Bologna weather history for previous 24 hours

 ConditionsComfort  
Time TempWeatherWind HumidityBarometerVisibility
9:50 AM
Thu, Jul 2
81 °FSunny.3 mph62%30.18 "Hg10 mi
9:20 AM79 °FPassing clouds.3 mph65%30.18 "HgN/A
8:50 AM77 °FSunny.3 mph65%30.18 "Hg10 mi
8:20 AM77 °FPassing clouds.3 mph69%30.18 "HgN/A
7:50 AM75 °FPassing clouds.3 mph69%30.18 "HgN/A
7:20 AM73 °FSunny.5 mph74%30.18 "Hg10 mi
6:50 AM72 °FSunny.6 mph78%30.15 "Hg10 mi
6:20 AM70 °FClear.3 mph83%30.15 "Hg10 mi
5:50 AM68 °FClear.2 mph83%30.15 "Hg10 mi
5:20 AM70 °FPassing clouds.3 mph83%30.15 "HgN/A
4:50 AM68 °FClear.2 mph83%30.15 "Hg10 mi
4:20 AM70 °FClear.2 mph78%30.15 "Hg10 mi
3:50 AM70 °FClear.No wind73%30.15 "Hg10 mi
3:20 AM70 °FClear.No wind78%30.15 "Hg10 mi
2:50 AM70 °FClear.2 mph73%30.15 "Hg10 mi
2:20 AM72 °FClear.2 mph69%30.15 "Hg10 mi
1:50 AM72 °FClear.3 mph69%30.15 "Hg10 mi
1:20 AM73 °FClear.5 mph65%30.15 "Hg10 mi
12:50 AM73 °FClear.5 mph65%30.15 "Hg10 mi
11:50 PM
Wed, Jul 1
73 °FPassing clouds.6 mph61%30.15 "HgN/A
10:50 PM77 °FPassing clouds.7 mph51%30.12 "HgN/A
10:20 PM79 °FPassing clouds.6 mph48%30.12 "HgN/A
9:50 PM79 °FPartly sunny.8 mph48%30.12 "HgN/A
9:20 PM81 °FScattered clouds.9 mph48%30.12 "HgN/A
8:50 PM81 °FSunny.9 mph48%30.12 "Hg10 mi
8:20 PM82 °FSunny.9 mph48%30.09 "Hg10 mi
7:50 PM84 °FSunny.10 mph45%30.09 "Hg10 mi
7:20 PM86 °FSunny.10 mph43%30.09 "Hg10 mi
6:50 PM86 °FSunny.12 mph43%30.09 "Hg10 mi
6:20 PM88 °FPassing clouds.13 mph40%30.09 "HgN/A
5:50 PM88 °FSunny.12 mph40%30.09 "Hg10 mi
5:20 PM90 °FPassing clouds.10 mph38%30.09 "HgN/A
4:50 PM90 °FPassing clouds.8 mph36%30.09 "HgN/A
4:20 PM90 °FPassing clouds.8 mph36%30.09 "HgN/A
3:50 PM90 °FPassing clouds.8 mph38%30.09 "HgN/A
3:20 PM90 °FPassing clouds.5 mph38%30.09 "HgN/A
2:50 PM88 °FSunny.5 mph46%30.09 "Hg10 mi
2:20 PM88 °FPassing clouds.6 mph46%30.12 "HgN/A
1:50 PM86 °FSunny.5 mph46%30.12 "Hg10 mi
1:20 PM86 °FPassing clouds.6 mph46%30.12 "HgN/A
12:50 PM86 °FPassing clouds.5 mph46%30.12 "HgN/A
12:20 PM84 °FSunny.5 mph48%30.12 "Hg10 mi
11:50 AM84 °FSunny.3 mph55%30.15 "Hg10 mi
11:20 AM82 °FSunny.2 mph55%30.15 "Hg10 mi
10:50 AM82 °FSunny.2 mph55%30.15 "Hg10 mi
10:20 AM79 °FSunny.3 mph58%30.15 "Hg10 mi
Weather by CustomWeather, © 2015

See weather overviewHow to use our weather pages